Location: Kalberh�ni
(46.4610°N, 7.2453°E)
Time: 20:53:27
(UTC+00:00)

USA 229 - Pass Details

Date: 29 October 2021
Orbit: 946 x 1266 km, 63.4° (Epoch: 25 November)

Event Time Altitude Azimuth Distance (km) Brightness Sun altitude
Rises 19:13:53 0° 264° (W) 3,693 7.6 -30.3°
Reaches altitude 10° 19:16:48 10° 276° (W) 2,785 6.8 -30.8°
Maximum altitude 19:22:23 28° 334° (NNW) 1,854 5.2 -31.7°
Enters shadow 19:25:51 19° 16° (NNE) 2,320 5.4 -32.3°
